RH
18 25 33 41 51 64 60 59 66 68 68 57 54 65 98 88 85 77 63 71 100 99 82 61 52 52 56 57 55 42 41 41 44 46 46 45 48 48 44 46 45 44 43
37 58 56 58 49 30 25 26 28 29 63 57 44 38 50 71 84 75 77 68 57 69 71 67 89 72 57 58 61 56 55 52 48 46 45 45 46 46 45 50 50 49 51
33 32 28 18 16 17 18 18 23 26 28 33 31 24 26 33 33 54 79 87 82 72 64 60 63 86 82 72 72 73 68 62 59 55 54 58 51 48 49 51 57 62 72
21 19 19 18 19 19 19 21 30 32 36 37 33 30 36 37 32 30 34 37 40 45 50 70 66 65 98 100 93 89 90 93 82 74 68 65 64 64 66 65 64 65 66
27 25 25 22 23 23 21 22 22 22 30 73 72 60 56 58 80 81 45 52 70 60 43 42 53 55 54 87 100 100 98 100 100 96 79 84 71 66 69 70 70 65 67
30 30 29 26 25 26 25 26 25 26 29 25 22 33 48 67 92 92 100 60 44 46 55 52 46 39 40 43 61 68 88 96 92 87 95 91 89 89 77 71 80 87 95
28 28 30 29 29 29 28 27 28 28 28 28 32 32 30 30 34 44 57 90 98 87 66 49 39 44 42 37 49 58 64 80 90 90 90 99 99 96 91 78 81 96 83
33 33 35 36 37 37 37 40 37 38 38 34 34 39 45 47 47 50 51 50 48 45 70 89 71 61 48 39 38 51 51 55 66 69 68 81 84 89 93 96 97 98 100
40 40 41 44 43 41 44 44 45 47 47 47 48 49 52 56 58 59 57 53 52 53 54 44 58 76 75 72 56 52 49 59 65 56 51 53 59 74 88 96 100 97 89
44 47 49 48 46 48 48 50 50 56 59 58 58 60 60 60 52 46 50 60 66 64 56 49 48 46 47 58 66 66 55 50 54 68 77 60 53 52 62 86 98 96 89
56 55 56 56 57 62 66 67 68 66 62 59 58 59 62 62 60 49 51 54 56 54 60 66 52 54 57 51 55 56 53 55 49 49 59 60 52 58 62 55 54 58 76
56 58 59 58 61 63 66 70 76 80 75 77 80 80 78 72 70 72 72 62 64 66 66 62 71 63 64 59 60 62 59 50 54 47 38 47 50 52 68 78 74 75 73
59 68 70 68 67 71 75 78 86 88 84 79 89 91 81 69 66 66 63 62 68 72 64 60 61 63 62 65 53 47 56 59 49 47 45 38 37 47 51 67 84 93 84
75 78 75 73 82 85 87 96 99 98 93 85 72 68 66 60 58 60 59 52 48 41 44 50 48 46 46 41 37 39 45 46 48 57 52 47 48 38 38 55 62 77 86
73 72 73 71 74 74 71 67 68 68 70 74 74 72 73 70 60 55 52 45 42 37 36 41 41 44 41 38 36 31 32 38 49 51 48 51 52 48 47 41 39 54 69
73 74 72 76 72 66 74 68 51 55 63 58 55 54 48 44 47 48 43 43 43 42 42 38 38 35 34 36 35 36 35 29 30 34 44 45 49 48 50 52 47 37 36
58 57 59 66 72 68 61 58 58 54 56 52 49 40 40 43 43 46 43 41 41 34 26 20 16 15 14 11 14 22 30 35 36 32 32 36 42 45 48 39 46 52 44
68 73 67 68 64 61 56 56 52 50 48 42 31 25 31 31 30 23 18 16 14 12 11 10 9 8 8 8 8 10 10 18 26 33 40 36 37 37 46 40 37 43 45
72 69 60 58 56 50 48 52 52 44 28 14 13 14 12 12 13 13 12 13 13 12 10 9 9 8 8 7 5 5 6 6 9 14 23 37 36 37 38 38 41 39 43
57 55 58 54 57 56 43 36 25 13 13 14 18 19 21 20 18 17 15 11 9 8 6 6 7 11 12 9 5 4 5 5 5 6 8 16 28 38 44 46 40 41 42
54 61 56 40 22 16 15 14 15 20 23 25 23 21 17 13 11 9 9 8 10 12 14 14 10 9 11 9 5 4 4 4 5 5 5 7 20 32 39 60 48 90 76
21 20 18 17 16 17 22 26 24 21 19 16 13 10 10 13 16 20 22 21 19 16 13 11 9 8 10 6 3 3 3 4 4 5 6 6 9 28 36 42 45 58 77
22 24 25 29 32 30 24 20 15 12 13 18 24 25 25 24 21 17 15 14 13 11 10 12 11 11 11 6 3 3 2 2 3 4 4 6 8 13 61 21 34 44 40
29 30 30 27 22 17 15 22 29 28 25 25 26 26 25 25 23 21 20 18 16 13 10 10 9 11 10 4 3 3 3 3 3 3 4 6 7 9 18 19 17 25 28
21 18 17 22 31 34 28 27 30 33 35 36 36 36 33 30 27 24 23 20 18 17 15 12 11 10 9 5 4 3 3 3 3 3 3 5 7 8 12 16 18 19 19
32 35 34 32 33 36 39 40 41 42 41 41 40 40 43 43 40 34 26 20 18 16 14 12 12 11 10 8 4 4 4 4 4 3 4 4 7 9 10 12 14 18 18
Wind_Speed
32 31 31 32 28 29 33 34 32 32 30 30 29 30 30 27 27 26 26 25 24 25 24 26 26 25 23 22 21 20 19 18 18 18 18 17 15 14 14 13 13 13 14
25 24 25 26 30 31 32 32 32 31 30 31 31 29 33 34 35 37 35 32 32 32 31 30 30 31 31 27 25 24 25 24 23 22 22 22 19 18 17 17 16 15 16
24 25 25 24 24 24 24 25 25 26 26 27 29 29 30 31 32 32 34 36 36 36 38 37 35 34 34 33 31 29 29 28 29 28 27 24 22 23 22 21 20 20 19
20 19 20 19 20 20 21 20 19 20 23 24 24 25 27 29 30 30 31 34 36 37 38 39 38 38 38 37 37 36 35 35 33 31 31 32 31 29 28 27 27 25 25
18 16 17 16 18 20 20 19 19 20 21 19 20 21 22 24 26 28 30 31 31 32 36 39 40 41 42 44 42 41 41 40 39 37 36 36 35 34 34 34 32 30 30
18 19 19 20 20 20 20 22 23 24 25 27 27 26 25 25 25 26 26 28 30 30 31 33 36 40 41 44 47 45 43 44 43 42 42 42 41 40 39 39 37 36 37
22 22 24 24 24 25 26 27 28 30 30 28 27 28 29 32 31 32 34 35 35 35 35 35 34 35 38 42 43 47 47 47 48 48 47 45 45 46 45 42 42 42 41
28 28 28 29 29 30 32 32 33 34 34 34 34 34 35 35 36 38 37 38 39 40 39 38 39 40 41 41 41 42 47 50 52 54 54 54 51 49 48 47 46 45 45
33 34 34 35 36 37 38 38 39 40 41 40 40 41 42 42 43 44 45 45 44 44 43 44 43 41 41 41 45 46 43 43 42 44 48 49 51 52 52 52 51 50 49
39 39 41 42 43 44 46 47 48 49 49 50 51 51 51 53 53 53 53 53 53 52 51 50 50 49 48 50 49 46 46 48 48 47 44 46 49 49 51 53 54 53 53
44 47 48 50 51 52 52 53 55 56 58 57 58 59 59 61 62 64 64 63 62 60 61 60 59 59 58 56 56 56 53 52 50 53 52 51 49 47 48 50 51 51 51
53 54 57 58 58 59 59 61 62 64 64 64 64 64 65 68 70 70 70 70 70 70 70 68 67 67 67 66 65 64 62 60 59 57 54 56 55 52 49 48 47 47 47
60 61 62 63 64 65 66 69 69 69 68 67 69 69 73 74 73 73 75 76 78 78 78 78 77 77 78 77 74 72 70 68 63 64 62 60 57 58 56 52 49 47 46
66 64 65 67 69 67 70 71 71 72 74 77 79 79 81 80 81 81 84 86 85 86 85 85 85 85 83 84 83 81 78 76 74 72 69 65 65 63 59 59 56 53 52
68 70 71 72 71 73 73 74 75 78 80 81 84 86 87 90 91 91 92 89 89 89 88 89 88 89 90 90 89 86 84 82 82 79 77 73 71 68 66 64 61 62 56
75 77 77 77 78 78 79 80 81 80 82 86 87 88 89 90 91 93 93 94 95 95 96 96 95 94 94 95 96 94 92 89 86 83 82 80 76 74 71 69 69 65 63
78 79 80 81 82 82 84 84 86 88 90 92 95 97 97 96 96 97 98 99 99 100 98 98 97 96 94 94 94 96 98 98 96 91 87 84 80 77 77 74 71 71 69
79 80 83 85 86 87 88 90 91 93 97 100 98 95 94 94 94 94 95 97 98 97 97 97 96 95 97 98 97 97 97 97 98 96 95 90 85 82 81 79 75 73 71
85 87 88 89 89 90 91 92 93 96 95 92 92 91 90 90 90 89 90 91 90 90 89 87 85 86 88 93 97 100 99 98 95 97 96 96 95 89 86 85 83 79 77
91 93 93 93 92 93 93 93 91 88 88 87 85 83 81 82 83 82 82 83 82 81 77 73 72 71 72 83 91 93 98 101 98 96 94 95 96 95 93 92 89 86 86
94 92 93 91 87 86 84 85 84 80 79 79 80 79 78 76 75 75 74 71 66 65 67 65 61 59 66 70 83 87 89 96 100 99 95 92 94 95 94 92 90 93 89
86 86 85 83 80 78 74 75 77 78 75 72 70 68 65 61 59 58 59 61 64 65 67 64 61 61 64 68 72 80 83 86 93 97 99 97 94 95 93 100 96 98 98
61 59 58 58 60 64 69 71 68 65 61 54 51 50 51 55 57 59 60 61 63 65 68 69 68 66 66 68 62 68 77 77 83 91 94 99 100 98 99 100 98 100 99
54 54 55 57 59 58 54 48 44 43 44 45 46 47 49 52 54 56 57 57 57 59 60 62 66 65 63 60 60 57 64 68 72 81 87 94 100 103 108 102 101 102 100
53 50 45 39 35 36 38 35 34 35 36 38 40 42 44 47 50 53 54 54 54 54 54 52 56 61 59 53 50 48 52 57 63 69 76 84 95 101 104 107 107 104 100
23 24 24 23 21 22 23 25 26 29 31 34 36 38 40 42 43 46 48 50 52 52 52 50 47 50 56 54 44 42 43 47 52 59 66 76 87 96 103 105 104 106 105
Wind_Direction
279 276 278 278 279 281 284 286 284 282 278 278 277 272 268 267 269 272 269 269 269 265 268 271 272 273 271 265 262 261 262 258 255 254 255 253 255 256 255 263 265 268 263
280 279 279 280 284 283 282 282 280 276 275 277 280 276 270 268 271 278 272 269 267 266 266 268 267 269 270 268 263 263 264 267 269 268 263 262 258 259 261 264 266 267 272
282 284 283 283 283 285 281 279 278 279 277 277 278 280 275 272 272 272 266 266 266 268 267 266 267 266 266 268 266 268 267 266 265 265 266 268 264 264 269 271 273 272 275
285 285 287 286 288 286 285 283 285 286 285 285 282 284 282 282 281 279 277 274 270 267 264 262 264 264 261 262 265 266 267 268 268 269 269 267 267 267 270 271 273 274 277
282 281 288 288 295 296 296 296 297 298 294 289 291 290 290 290 285 286 283 283 280 277 274 267 265 263 262 260 260 262 263 265 266 266 268 269 269 269 270 272 272 274 276
280 283 286 290 290 290 288 292 292 293 292 290 289 289 292 288 288 284 290 283 284 282 279 275 271 270 267 265 262 261 261 262 264 266 269 270 268 268 270 271 273 274 275
282 285 286 285 287 288 289 288 286 290 291 288 286 286 287 287 287 288 289 290 290 289 287 285 282 276 271 266 264 263 263 263 263 264 267 269 270 269 268 268 272 278 279
284 284 285 284 281 283 284 285 284 286 285 285 284 283 284 286 286 286 287 287 288 286 284 283 282 283 283 281 275 269 265 264 263 264 265 264 265 266 267 268 269 271 272
277 280 281 280 276 274 275 277 281 283 284 282 280 279 281 282 283 282 282 282 283 283 283 283 281 278 278 277 278 279 276 273 270 268 266 264 264 264 263 265 266 268 270
273 273 276 277 278 280 280 282 283 284 285 286 285 283 284 285 285 284 282 281 280 279 278 278 278 277 277 277 279 275 275 272 275 275 272 268 264 263 264 265 266 267 269
275 274 275 277 279 281 283 284 285 286 286 286 287 287 287 288 287 288 286 282 280 278 279 278 276 277 278 273 274 276 275 272 271 269 270 271 271 270 268 268 267 266 266
276 277 279 280 281 282 281 282 283 284 284 285 285 285 285 286 287 286 285 285 284 283 281 279 278 278 276 275 275 274 273 273 275 273 269 265 267 267 268 270 270 267 267
276 277 278 279 280 281 281 283 284 283 281 281 281 282 283 284 283 284 284 284 282 281 280 281 280 278 279 277 275 274 273 271 269 271 271 269 267 264 263 263 264 265 264
278 280 281 282 281 282 282 282 282 282 282 282 284 284 284 285 283 283 285 286 282 280 279 278 278 279 278 277 275 274 271 270 269 267 268 268 267 266 263 261 260 259 263
278 280 280 281 281 281 281 282 283 283 283 283 284 285 285 285 285 284 283 282 281 280 279 277 277 276 277 276 276 273 271 269 267 267 267 267 266 265 264 265 261 260 258
281 281 282 281 282 282 282 282 283 284 285 285 285 286 285 285 284 284 283 282 280 279 278 277 275 274 273 272 270 270 270 269 266 265 265 264 264 264 263 262 264 263 259
282 283 282 281 282 282 283 284 284 286 288 288 288 288 287 285 285 285 284 284 283 281 282 282 280 277 272 269 267 266 265 265 265 264 263 262 261 261 260 260 259 262 264
283 284 285 285 284 284 285 285 286 289 289 289 289 288 287 286 284 284 283 282 282 281 279 277 274 272 271 269 265 263 261 259 259 259 259 260 260 259 258 259 258 259 260
281 282 284 285 285 287 289 291 290 290 291 290 290 288 287 287 286 284 283 283 283 281 281 279 276 273 271 269 265 263 260 257 254 253 254 255 256 257 257 257 257 257 258
283 285 286 287 289 290 290 289 289 290 289 289 288 288 288 287 286 286 283 283 284 284 281 278 274 272 272 272 267 262 259 258 254 252 249 250 252 252 253 256 255 257 258
286 287 288 288 288 288 289 290 291 291 289 288 289 289 288 287 286 287 288 289 289 287 285 286 279 274 268 273 269 265 259 254 254 252 250 246 247 248 249 250 252 252 254
285 285 285 286 287 288 290 289 288 289 288 288 288 288 288 289 289 289 290 290 290 290 291 292 290 290 286 283 268 264 259 254 251 249 248 246 245 246 250 250 249 248 250
289 290 290 289 289 288 287 288 290 291 293 293 294 295 297 297 296 297 297 297 297 295 294 293 293 293 293 288 274 265 261 258 252 249 245 244 243 242 239 245 246 248 249
290 290 289 287 287 290 292 294 294 293 298 303 303 303 303 302 301 300 299 299 299 298 298 296 294 293 291 288 280 270 263 259 254 248 245 241 241 240 241 245 247 248 249
287 289 292 295 296 293 296 304 308 310 309 308 309 308 307 306 305 304 303 301 300 298 297 299 298 294 294 293 282 273 262 256 252 246 244 243 241 240 241 242 245 246 248
299 299 300 306 315 321 323 326 327 324 321 319 315 314 312 309 307 305 303 303 303 302 302 302 301 298 296 298 288 278 266 256 252 249 245 242 240 240 240 241 243 245 247